• In Hungary
  • List of Countries
  • For 7 days
  • Water Temperature
  • Satellite Maps
  • Weather Map
  • News
  • Weather Widgets
  • user-avatar
    Login

    Hourly Weather Annovka

    Today, 23 July, Monday

    Time Temperature Precipitation Wind Pressure Humidity
    00:00 +19°C° 0.1 mm 5 mps 741 mmHg 94%
    01:00 +19°C° 0.3 mm 5 mps 741 mmHg 94%
    02:00 +19°C° 0.3 mm 4 mps 741 mmHg 94%
    03:00 +18°C° 0.3 mm 4 mps 741 mmHg 95%
    04:00 +18°C° 0.2 mm 4 mps 741 mmHg 94%
    05:00 +18°C° 0.2 mm 4 mps 741 mmHg 94%
    06:00 +18°C° 0.2 mm 4 mps 741 mmHg 93%
    07:00 +19°C° 0.1 mm 4 mps 741 mmHg 90%
    08:00 +20°C° 0.1 mm 4 mps 741 mmHg 87%
    09:00 +21°C° 0.1 mm 4 mps 742 mmHg 85%
    10:00 +23°C° 0.3 mm 4 mps 742 mmHg 81%
    11:00 +25°C° 0.3 mm 5 mps 742 mmHg 77%
    12:00 +26°C° 0.3 mm 5 mps 742 mmHg 73%
    13:00 +27°C° 0.9 mm 5 mps 742 mmHg 73%
    14:00 +27°C° 0.9 mm 5 mps 742 mmHg 73%
    15:00 +27°C° 0.9 mm 5 mps 742 mmHg 72%
    16:00 +26°C° 0.5 mm 4 mps 742 mmHg 76%
    17:00 +26°C° 0.5 mm 4 mps 742 mmHg 79%
    18:00 +25°C° 0.5 mm 4 mps 742 mmHg 83%
    19:00 +23°C° 0.3 mm 4 mps 742 mmHg 85%
    20:00 +22°C° 0.3 mm 4 mps 742 mmHg 87%
    21:00 +22°C° 0.3 mm 4 mps 742 mmHg 89%
    22:00 +21°C° 0 mm 4 mps 743 mmHg 90%
    23:00 +21°C° 0 mm 4 mps 743 mmHg 91%

    Tomorrow, 24 July, Tuesday

    Time Temperature Precipitation Wind Pressure Humidity
    00:00 +20°C° 0 mm 4 mps 743 mmHg 92%
    01:00 +20°C° 0 mm 4 mps 743 mmHg 92%
    02:00 +19°C° 0 mm 3 mps 743 mmHg 93%
    03:00 +19°C° 0 mm 3 mps 743 mmHg 94%
    04:00 +19°C° 0 mm 3 mps 743 mmHg 93%
    05:00 +19°C° 0 mm 3 mps 744 mmHg 92%
    06:00 +20°C° 0 mm 3 mps 744 mmHg 91%
    07:00 +21°C° 0 mm 3 mps 744 mmHg 87%
    08:00 +22°C° 0 mm 3 mps 744 mmHg 83%
    09:00 +25°C° 0 mm 3 mps 745 mmHg 79%
    10:00 +26°C° 0.5 mm 3 mps 745 mmHg 75%
    11:00 +27°C° 0.5 mm 3 mps 745 mmHg 71%
    12:00 +28°C° 0.5 mm 3 mps 745 mmHg 67%
    13:00 +28°C° 1.1 mm 4 mps 745 mmHg 70%
    14:00 +27°C° 1.1 mm 4 mps 745 mmHg 74%
    15:00 +26°C° 1.1 mm 4 mps 746 mmHg 78%
    16:00 +26°C° 0.4 mm 4 mps 746 mmHg 81%
    17:00 +25°C° 0.4 mm 3 mps 746 mmHg 85%
    18:00 +24°C° 0.4 mm 3 mps 746 mmHg 88%
    19:00 +24°C° 0.1 mm 3 mps 746 mmHg 88%
    20:00 +22°C° 0.1 mm 3 mps 746 mmHg 88%
    21:00 +22°C° 0.1 mm 3 mps 747 mmHg 88%
    22:00 +21°C° 0.3 mm 3 mps 747 mmHg 86%
    23:00 +21°C° 0.3 mm 3 mps 747 mmHg 85%

    Day after tomorrow, 25 July, Wednesday

    Time Temperature Precipitation Wind Pressure Humidity
    00:00 +21°C° 0.3 mm 3 mps 747 mmHg 83%
    01:00 +21°C° 0 mm 3 mps 747 mmHg 82%
    02:00 +20°C° 0 mm 3 mps 747 mmHg 81%
    03:00 +20°C° 0 mm 4 mps 747 mmHg 79%
    04:00 +20°C° 0 mm 4 mps 747 mmHg 76%
    05:00 +19°C° 0 mm 4 mps 747 mmHg 73%
    06:00 +19°C° 0 mm 5 mps 747 mmHg 70%
    07:00 +20°C° 0 mm 5 mps 747 mmHg 68%
    08:00 +20°C° 0 mm 5 mps 747 mmHg 67%
    09:00 +21°C° 0 mm 5 mps 747 mmHg 66%
    10:00 +22°C° 0.1 mm 5 mps 748 mmHg 65%
    11:00 +23°C° 0.1 mm 5 mps 748 mmHg 64%
    12:00 +25°C° 0.1 mm 5 mps 748 mmHg 63%
    13:00 +25°C° 0 mm 5 mps 748 mmHg 62%
    14:00 +26°C° 0 mm 5 mps 748 mmHg 61%
    15:00 +27°C° 0 mm 6 mps 748 mmHg 60%
    16:00 +27°C° 0 mm 5 mps 748 mmHg 61%
    17:00 +27°C° 0 mm 5 mps 748 mmHg 63%
    18:00 +26°C° 0 mm 5 mps 748 mmHg 64%
    19:00 +25°C° 0.1 mm 5 mps 748 mmHg 65%
    20:00 +23°C° 0.1 mm 5 mps 748 mmHg 66%
    21:00 +22°C° 0.1 mm 5 mps 748 mmHg 67%
    22:00 +22°C° 0.1 mm 5 mps 748 mmHg 67%
    23:00 +22°C° 0.1 mm 5 mps 748 mmHg 67%

    26 July, Thursday

    Time Temperature Precipitation Wind Pressure Humidity
    00:00 +21°C° 0.1 mm 5 mps 748 mmHg 67%
    01:00 +21°C° 0 mm 5 mps 748 mmHg 66%
    02:00 +22°C° 0 mm 5 mps 748 mmHg 65%
    03:00 +22°C° 0 mm 5 mps 748 mmHg 65%
    04:00 +21°C° 0 mm 5 mps 748 mmHg 66%
    05:00 +21°C° 0 mm 5 mps 749 mmHg 67%
    06:00 +21°C° 0 mm 4 mps 749 mmHg 69%
    07:00 +22°C° 0 mm 5 mps 749 mmHg 68%
    08:00 +22°C° 0 mm 5 mps 749 mmHg 67%
    09:00 +23°C° 0 mm 5 mps 749 mmHg 67%
    10:00 +25°C° 0 mm 5 mps 750 mmHg 67%
    11:00 +26°C° 0 mm 5 mps 750 mmHg 66%
    12:00 +27°C° 0 mm 5 mps 750 mmHg 66%
    13:00 +28°C° 0 mm 5 mps 750 mmHg 65%
    14:00 +29°C° 0 mm 5 mps 750 mmHg 63%
    15:00 +29°C° 0 mm 5 mps 750 mmHg 62%
    16:00 +29°C° 0 mm 5 mps 750 mmHg 64%
    17:00 +29°C° 0 mm 4 mps 750 mmHg 65%
    18:00 +29°C° 0 mm 4 mps 750 mmHg 67%
    19:00 +28°C° 0 mm 4 mps 750 mmHg 67%
    20:00 +27°C° 0 mm 5 mps 751 mmHg 66%
    21:00 +26°C° 0 mm 5 mps 751 mmHg 66%
    22:00 +25°C° 0 mm 5 mps 751 mmHg 66%
    23:00 +23°C° 0 mm 4 mps 751 mmHg 67%

    27 July, Friday

    Time Temperature Precipitation Wind Pressure Humidity
    00:00 +23°C° 0 mm 4 mps 751 mmHg 67%
    01:00 +22°C° 0 mm 3 mps 751 mmHg 68%
    02:00 +22°C° 0 mm 3 mps 751 mmHg 70%
    03:00 +21°C° 0 mm 3 mps 751 mmHg 71%
    04:00 +21°C° 0 mm 3 mps 751 mmHg 73%
    05:00 +20°C° 0 mm 3 mps 751 mmHg 76%
    06:00 +20°C° 0 mm 3 mps 751 mmHg 78%
    07:00 +22°C° 0 mm 4 mps 751 mmHg 74%
    08:00 +23°C° 0 mm 4 mps 751 mmHg 71%
    09:00 +26°C° 0 mm 4 mps 751 mmHg 67%
    10:00 +27°C° 0 mm 5 mps 751 mmHg 62%
    11:00 +29°C° 0 mm 5 mps 751 mmHg 58%
    12:00 +30°C° 0 mm 5 mps 751 mmHg 54%
    13:00 +30°C° 0 mm 5 mps 751 mmHg 52%
    14:00 +32°C° 0 mm 5 mps 751 mmHg 51%
    15:00 +32°C° 0 mm 5 mps 751 mmHg 49%
    16:00 +32°C° 0 mm 5 mps 751 mmHg 54%
    17:00 +30°C° 0 mm 4 mps 751 mmHg 59%
    18:00 +29°C° 0 mm 3 mps 751 mmHg 64%
    19:00 +28°C° 0 mm 3 mps 751 mmHg 66%
    20:00 +26°C° 0 mm 3 mps 751 mmHg 69%
    21:00 +25°C° 0 mm 3 mps 751 mmHg 72%
    22:00 +24°C° 0 mm 3 mps 751 mmHg 73%
    23:00 +22°C° 0 mm 3 mps 751 mmHg 74%

    28 July, Saturday

    Time Temperature Precipitation Wind Pressure Humidity
    00:00 +22°C° 0 mm 3 mps 751 mmHg 74%
    01:00 +21°C° 0 mm 3 mps 751 mmHg 74%
    02:00 +21°C° 0 mm 3 mps 751 mmHg 73%
    03:00 +20°C° 0 mm 3 mps 751 mmHg 73%
    04:00 +20°C° 0 mm 3 mps 751 mmHg 74%
    05:00 +20°C° 0 mm 3 mps 751 mmHg 76%
    06:00 +20°C° 0 mm 3 mps 751 mmHg 77%
    07:00 +22°C° 0 mm 3 mps 751 mmHg 74%
    08:00 +23°C° 0 mm 4 mps 751 mmHg 70%
    09:00 +26°C° 0 mm 4 mps 751 mmHg 66%
    10:00 +27°C° 0 mm 4 mps 751 mmHg 62%
    11:00 +28°C° 0 mm 4 mps 751 mmHg 58%
    12:00 +29°C° 0 mm 5 mps 751 mmHg 55%
    13:00 +29°C° 0 mm 4 mps 750 mmHg 55%
    14:00 +29°C° 0 mm 4 mps 750 mmHg 56%
    15:00 +29°C° 0 mm 4 mps 750 mmHg 56%
    16:00 +29°C° 0 mm 4 mps 750 mmHg 59%
    17:00 +29°C° 0 mm 3 mps 750 mmHg 62%
    18:00 +29°C° 0 mm 3 mps 750 mmHg 65%
    19:00 +28°C° 0 mm 3 mps 750 mmHg 68%
    20:00 +26°C° 0 mm 3 mps 750 mmHg 71%
    21:00 +25°C° 0 mm 3 mps 750 mmHg 74%
    22:00 +24°C° 0 mm 3 mps 750 mmHg 76%
    23:00 +24°C° 0 mm 3 mps 750 mmHg 77%
    Show more